User: anonymous   Login
Location: Unspecified
(0.0000°N, 0.0000°E)
Time: 17:03:20
(UTC+00:00)
Language:

Kosmos-2233 - Orbit

View from above orbital plane
View from above orbital plane
View from above satellite
View from above satellite

Ground track
Ground track

The orbit data is extracted from the following two-line orbital elements,

1 22487U 93008A   18175.57396682  .00000045  00000-0  31125-4 0  9996
2 22487  82.9433 184.2271 0037620 340.9142 137.0307 13.75774992269530
Epoch (UTC): 24 June 2018 13:46:30
Eccentricity: 0.0037620
inclination: 82.9433°
perigee height: 951 km
apogee height: 1006 km
right ascension of ascending node: 184.2271°
argument of perigee: 340.9142°
revolutions per day: 13.75774992
mean anomaly at epoch: 137.0307°
orbit number at epoch: 26953

The dashed part of the orbit path shows where the satellite is in the earth's shadow,  

DLR